Tracking 26492 objects as of 7-Dec-2022
HD Live streaming from Space Station
objects crossing your sky now

NOAA 16 DEB

Track NOAA 16 DEB now!
10-day predictions


NORAD ID: 41295
Int'l Code: 2000-055GX
Perigee: 846.3 km
Apogee: 885.1 km
Inclination: 98.7 °
Period: 102.1 minutes
Semi major axis: 7236 km
RCS: Unknown
Launch date: September 21, 2000
Source: United States (US)
Launch site: AIR FORCE WESTERN TEST RANGE (AFWTR)

Note: This is SATELLITE DEBRIS
aabbcc
Your satellite tracking list
Your tracking list is empty




NASA's NSSDC Master Catalog

Two Line Element Set (TLE):
1 41295U 00055GX  22339.90831949  .00002095  00000-0  12027-2 0  9993
2 41295  98.7445  23.9618 0026755 279.8928  79.9223 14.10235653357501
Source of the keplerian elements: AFSPC